When you browse on this site, cookies collect data to enhance your experience and personalize the content and advertising you see.
Visit our Privacy Policy to learn more. By continuing to use the site, you agree to this use of cookies and data.
  • In Spain
  • List of Countries
  • For 7 days
  • Water Temperature
  • Satellite Maps
  • Weather Map
  • Weather Widgets
  • user-avatar
    Login

    Hourly Weather Dara

    Today, 21 May, Tuesday

    Time Temperature Precipitation Wind Pressure Humidity
    00:00 +24°C° 0 mm 1 mps 715 mmHg 43%
    01:00 +23°C° 0 mm 1 mps 715 mmHg 44%
    02:00 +23°C° 0 mm 1 mps 715 mmHg 48%
    03:00 +23°C° 0 mm 1 mps 715 mmHg 48%
    04:00 +21°C° 0 mm 0 mps 715 mmHg 47%
    05:00 +20°C° 0 mm 0 mps 715 mmHg 47%
    06:00 +25°C° 0 mm 1 mps 716 mmHg 40%
    07:00 +27°C° 0 mm 1 mps 716 mmHg 33%
    08:00 +29°C° 0 mm 2 mps 717 mmHg 27%
    09:00 +31°C° 0 mm 2 mps 717 mmHg 24%
    10:00 +34°C° 0 mm 3 mps 717 mmHg 20%
    11:00 +35°C° 0 mm 3 mps 717 mmHg 16%
    12:00 +36°C° 0 mm 4 mps 717 mmHg 15%
    13:00 +37°C° 0 mm 5 mps 717 mmHg 14%
    14:00 +38°C° 0 mm 6 mps 717 mmHg 14%
    15:00 +36°C° 0 mm 6 mps 717 mmHg 15%
    16:00 +35°C° 0 mm 7 mps 716 mmHg 16%
    17:00 +35°C° 0 mm 7 mps 716 mmHg 16%
    18:00 +33°C° 0 mm 6 mps 716 mmHg 20%
    19:00 +30°C° 0 mm 4 mps 716 mmHg 23%
    20:00 +28°C° 0 mm 3 mps 716 mmHg 26%
    21:00 +28°C° 0 mm 2 mps 716 mmHg 28%
    22:00 +27°C° 0 mm 2 mps 716 mmHg 31%
    23:00 +26°C° 0 mm 1 mps 716 mmHg 33%

    Tomorrow, 22 May, Wednesday

    Time Temperature Precipitation Wind Pressure Humidity
    00:00 +25°C° 0 mm 1 mps 716 mmHg 34%
    01:00 +25°C° 0 mm 1 mps 716 mmHg 35%
    02:00 +24°C° 0 mm 1 mps 716 mmHg 35%
    03:00 +24°C° 0 mm 1 mps 716 mmHg 35%
    04:00 +24°C° 0 mm 1 mps 716 mmHg 34%
    05:00 +24°C° 0 mm 1 mps 716 mmHg 34%
    06:00 +26°C° 0 mm 1 mps 716 mmHg 28%
    07:00 +28°C° 0 mm 1 mps 717 mmHg 23%
    08:00 +31°C° 0 mm 1 mps 717 mmHg 18%
    09:00 +34°C° 0 mm 2 mps 717 mmHg 15%
    10:00 +36°C° 0 mm 3 mps 717 mmHg 13%
    11:00 +38°C° 0 mm 4 mps 718 mmHg 10%
    12:00 +40°C° 0 mm 5 mps 717 mmHg 10%
    13:00 +40°C° 0 mm 6 mps 717 mmHg 9%
    14:00 +41°C° 0 mm 7 mps 717 mmHg 8%
    15:00 +40°C° 0 mm 7 mps 717 mmHg 9%
    16:00 +39°C° 0 mm 7 mps 717 mmHg 9%
    17:00 +38°C° 0 mm 7 mps 716 mmHg 10%
    18:00 +35°C° 0 mm 6 mps 716 mmHg 12%
    19:00 +33°C° 0 mm 4 mps 716 mmHg 14%
    20:00 +31°C° 0 mm 2 mps 716 mmHg 16%
    21:00 +30°C° 0 mm 2 mps 716 mmHg 17%
    22:00 +29°C° 0 mm 1 mps 716 mmHg 18%
    23:00 +28°C° 0 mm 1 mps 716 mmHg 20%

    Day after tomorrow, 23 May, Thursday

    Time Temperature Precipitation Wind Pressure Humidity
    00:00 +27°C° 0 mm 1 mps 716 mmHg 20%
    01:00 +27°C° 0 mm 1 mps 716 mmHg 21%
    02:00 +24°C° 0 mm 0 mps 715 mmHg 22%
    03:00 +24°C° 0 mm 0 mps 715 mmHg 22%
    04:00 +24°C° 0 mm 0 mps 715 mmHg 23%
    05:00 +24°C° 0 mm 0 mps 715 mmHg 23%
    06:00 +28°C° 0 mm 1 mps 715 mmHg 20%
    07:00 +31°C° 0 mm 1 mps 715 mmHg 16%
    08:00 +33°C° 0 mm 1 mps 716 mmHg 13%
    09:00 +35°C° 0 mm 1 mps 716 mmHg 12%
    10:00 +38°C° 0 mm 2 mps 716 mmHg 10%
    11:00 +39°C° 0 mm 2 mps 716 mmHg 9%
    12:00 +40°C° 0 mm 3 mps 716 mmHg 9%
    13:00 +42°C° 0 mm 3 mps 715 mmHg 9%
    14:00 +42°C° 0 mm 4 mps 715 mmHg 8%
    15:00 +42°C° 0 mm 5 mps 714 mmHg 9%
    16:00 +41°C° 0 mm 5 mps 714 mmHg 10%
    17:00 +41°C° 0 mm 6 mps 714 mmHg 10%
    18:00 +39°C° 0 mm 5 mps 714 mmHg 12%
    19:00 +36°C° 0 mm 3 mps 714 mmHg 14%
    20:00 +33°C° 0 mm 1 mps 714 mmHg 16%
    21:00 +32°C° 0 mm 1 mps 714 mmHg 17%
    22:00 +31°C° 0 mm 1 mps 714 mmHg 17%
    23:00 +31°C° 0 mm 1 mps 714 mmHg 18%

    24 May, Friday

    Time Temperature Precipitation Wind Pressure Humidity
    00:00 +30°C° 0 mm 1 mps 713 mmHg 18%
    01:00 +30°C° 0 mm 1 mps 713 mmHg 17%
    02:00 +29°C° 0 mm 1 mps 712 mmHg 17%
    03:00 +29°C° 0 mm 1 mps 712 mmHg 17%
    04:00 +29°C° 0 mm 2 mps 712 mmHg 18%
    05:00 +29°C° 0 mm 2 mps 712 mmHg 18%
    06:00 +33°C° 0 mm 3 mps 713 mmHg 15%
    07:00 +35°C° 0 mm 3 mps 713 mmHg 13%
    08:00 +38°C° 0 mm 3 mps 714 mmHg 11%
    09:00 +40°C° 0 mm 4 mps 714 mmHg 10%
    10:00 +42°C° 0 mm 5 mps 714 mmHg 9%
    11:00 +44°C° 0 mm 6 mps 714 mmHg 8%
    12:00 +45°C° 0 mm 5 mps 713 mmHg 7%
    13:00 +45°C° 0 mm 5 mps 713 mmHg 6%
    14:00 +46°C° 0 mm 5 mps 713 mmHg 6%
    15:00 +45°C° 0 mm 5 mps 713 mmHg 6%
    16:00 +43°C° 0 mm 5 mps 712 mmHg 6%
    17:00 +44°C° 0 mm 6 mps 712 mmHg 6%
    18:00 +41°C° 0 mm 4 mps 712 mmHg 9%
    19:00 +38°C° 0 mm 3 mps 712 mmHg 11%
    20:00 +34°C° 0 mm 1 mps 712 mmHg 13%
    21:00 +34°C° 0 mm 1 mps 712 mmHg 13%
    22:00 +34°C° 0 mm 1 mps 712 mmHg 13%
    23:00 +33°C° 0 mm 1 mps 712 mmHg 12%

    25 May, Saturday

    Time Temperature Precipitation Wind Pressure Humidity
    00:00 +32°C° 0 mm 1 mps 712 mmHg 14%
    01:00 +31°C° 0 mm 1 mps 712 mmHg 15%
    02:00 +28°C° 0 mm 0 mps 712 mmHg 17%
    03:00 +29°C° 0 mm 1 mps 712 mmHg 17%
    04:00 +29°C° 0 mm 1 mps 712 mmHg 18%
    05:00 +28°C° 0 mm 1 mps 712 mmHg 18%
    06:00 +30°C° 0 mm 2 mps 713 mmHg 19%
    07:00 +31°C° 0 mm 3 mps 713 mmHg 20%
    08:00 +33°C° 0 mm 4 mps 714 mmHg 20%
    09:00 +34°C° 0 mm 5 mps 714 mmHg 20%
    10:00 +35°C° 0 mm 5 mps 714 mmHg 20%
    11:00 +36°C° 0 mm 6 mps 714 mmHg 20%
    12:00 +38°C° 0 mm 6 mps 714 mmHg 20%
    13:00 +38°C° 0 mm 6 mps 714 mmHg 20%
    14:00 +38°C° 0 mm 6 mps 714 mmHg 20%
    15:00 +36°C° 0 mm 6 mps 714 mmHg 23%
    16:00 +35°C° 0 mm 6 mps 713 mmHg 25%
    17:00 +33°C° 0 mm 7 mps 713 mmHg 28%
    18:00 +32°C° 0 mm 6 mps 713 mmHg 32%
    19:00 +29°C° 0 mm 5 mps 713 mmHg 35%
    20:00 +27°C° 0 mm 3 mps 713 mmHg 38%
    21:00 +26°C° 0 mm 3 mps 713 mmHg 40%
    22:00 +26°C° 0 mm 3 mps 713 mmHg 42%
    23:00 +25°C° 0 mm 2 mps 713 mmHg 43%

    26 May, Sunday

    Time Temperature Precipitation Wind Pressure Humidity
    00:00 +24°C° 0 mm 2 mps 713 mmHg 46%
    01:00 +24°C° 0 mm 2 mps 713 mmHg 49%
    02:00 +23°C° 0 mm 2 mps 713 mmHg 52%
    03:00 +23°C° 0 mm 2 mps 713 mmHg 53%
    04:00 +22°C° 0 mm 1 mps 713 mmHg 55%
    05:00 +22°C° 0 mm 1 mps 713 mmHg 56%
    06:00 +23°C° 0 mm 2 mps 714 mmHg 47%
    07:00 +25°C° 0 mm 2 mps 714 mmHg 39%
    08:00 +26°C° 0 mm 2 mps 714 mmHg 30%
    09:00 +28°C° 0 mm 3 mps 714 mmHg 25%
    10:00 +30°C° 0 mm 4 mps 714 mmHg 20%
    11:00 +33°C° 0 mm 5 mps 714 mmHg 15%
    12:00 +33°C° 0 mm 5 mps 714 mmHg 14%
    13:00 +34°C° 0 mm 6 mps 713 mmHg 14%
    14:00 +35°C° 0 mm 7 mps 713 mmHg 13%
    15:00 +34°C° 0 mm 6 mps 713 mmHg 14%
    16:00 +33°C° 0 mm 6 mps 713 mmHg 14%
    17:00 +32°C° 0 mm 6 mps 713 mmHg 15%
    18:00 +30°C° 0 mm 5 mps 713 mmHg 19%
    19:00 +28°C° 0 mm 4 mps 713 mmHg 23%
    20:00 +26°C° 0 mm 3 mps 713 mmHg 27%
    21:00 +25°C° 0 mm 2 mps 713 mmHg 32%
    22:00 +24°C° 0 mm 2 mps 713 mmHg 37%
    23:00 +23°C° 0 mm 1 mps 713 mmHg 42%
    Show more